Weather History for Vero Beach, FL

Change the Weather History Date:

Wednesday, December 7, 2011

  Actual Average Record
Temperature  
Mean Temperature 71 °F 66 °F  
Max Temperature 83 °F 75 °F 87 °F (1972)
Min Temperature 59 °F 57 °F 31 °F (2010)
Degree Days  
Heating Degree Days 0 2  
Month to date heating degree days 4 14  
Since 1 July heating degree days 17 44  
Cooling Degree Days 6 4  
Month to date cooling degree days 44 28  
Year to date cooling degree days 3621 3339  
Growing Degree Days 20 (Base 50)    
Moisture  
Dew Point 57 °F    
Average Humidity 67    
Maximum Humidity 90    
Minimum Humidity 43    
Precipitation  
Precipitation 0.00 in 0.07 in 1.48 in (1996)
Month to date precipitation 0.05 0.53  
Year to date precipitation 59.89 50.21  
Sea Level Pressure  
Sea Level Pressure 30.04 in    
Wind  
Wind Speed 8 mph (West)    
Max Wind Speed 24 mph    
Max Gust Speed 31 mph    
Visibility 10 miles    
Events      
T = Trace of Precipitation, MM = Missing Value Source: NWS Daily Summary

Daily Weather History Graph

Daily Weather History Graph

Search for Another Location

Airport:

Trip Planner

Search our weather history database for the weather conditions in past years. The results will help you decide how hot, cold, wet, or windy it might be!

Date:

Astronomy

Dec. 07, 2011 Rise Set
Actual Time 6:59 AM EST 5:26 PM EST
Civil Twilight 6:33 AM EST 5:52 PM EST
Nautical Twilight 6:04 AM EST 6:21 PM EST
Astronomical Twilight 5:36 AM EST 6:49 PM EST
Moon 3:22 PM EST (12/7) 4:19 AM EST (12/7)
Length of Visible Light 11h 18m
Length of Day
10h 27m
Waxing Gibbous, 92% of the Moon is Illuminated
Dec 7
Waxing Gibbous
Dec 10
Full
Dec 17
Last Quarter
Dec 24
New
Jan 1
First Quarter

Hourly Weather History & Observations

Time (EST) Temp. Heat Index Dew Point Humidity Pressure Visibility Wind Dir Wind Speed Gust Speed Precip Events Conditions
12:53 AM 62.1 °F - 57.9 °F 86% 30.07 in 10.0 mi Calm Calm - N/A   Scattered Clouds
1:53 AM 59.0 °F - 55.0 °F 87% 30.06 in 10.0 mi Calm Calm - N/A   Clear
2:53 AM 59.0 °F - 55.4 °F 88% 30.05 in 10.0 mi Calm Calm - N/A   Scattered Clouds
3:53 AM 60.8 °F - 55.4 °F 82% 30.04 in 10.0 mi Calm Calm - N/A   Mostly Cloudy
4:53 AM 59.0 °F - 55.9 °F 90% 30.04 in 10.0 mi West 4.6 mph - N/A   Clear
5:53 AM 60.1 °F - 57.0 °F 90% 30.04 in 10.0 mi West 3.5 mph - N/A   Mostly Cloudy
6:53 AM 62.6 °F - 59.0 °F 88% 30.06 in 10.0 mi West 3.5 mph - N/A   Overcast
7:53 AM 64.9 °F - 61.0 °F 87% 30.08 in 10.0 mi Calm Calm - N/A   Overcast
8:53 AM 69.1 °F - 63.0 °F 81% 30.09 in 10.0 mi West 4.6 mph - N/A   Scattered Clouds
9:53 AM 75.0 °F - 62.1 °F 64% 30.09 in 10.0 mi West 6.9 mph - N/A   Partly Cloudy
10:53 AM 78.1 °F - 57.9 °F 50% 30.07 in 10.0 mi WSW 10.4 mph - N/A   Clear
11:53 AM 80.1 °F 80.7 °F 59.0 °F 48% 30.04 in 10.0 mi SW 11.5 mph - N/A   Clear
12:53 PM 82.0 °F 82.1 °F 59.0 °F 45% 30.01 in 10.0 mi SW 15.0 mph 21.9 mph N/A   Clear
1:53 PM 82.0 °F 82.0 °F 57.9 °F 44% 29.97 in 10.0 mi SW 13.8 mph 21.9 mph N/A   Clear
2:53 PM 82.0 °F 81.7 °F 57.0 °F 42% 29.95 in 10.0 mi SSW 11.5 mph - N/A   Clear
3:53 PM 81.0 °F 81.0 °F 57.0 °F 44% 29.94 in 10.0 mi SSW 13.8 mph - N/A   Clear
4:53 PM 78.1 °F - 57.0 °F 48% 29.94 in 10.0 mi SSW 9.2 mph - N/A   Clear
5:53 PM 73.9 °F - 57.0 °F 55% 29.95 in 10.0 mi SSW 5.8 mph - N/A   Clear
6:53 PM 70.0 °F - 57.9 °F 65% 29.97 in 10.0 mi SW 4.6 mph - N/A   Scattered Clouds
7:53 PM 71.1 °F - 63.0 °F 75% 30.01 in 10.0 mi WNW 11.5 mph 20.7 mph N/A   Partly Cloudy
8:28 PM 69.8 °F - 62.6 °F 78% 30.04 in 10.0 mi WNW 9.2 mph - N/A   Mostly Cloudy
8:53 PM 64.9 °F - 57.9 °F 78% 30.06 in 10.0 mi WNW 18.4 mph 31.1 mph N/A   Overcast
9:01 PM 64.4 °F - 57.2 °F 77% 30.07 in 10.0 mi WNW 18.4 mph 26.5 mph N/A   Overcast
9:26 PM 62.6 °F - 55.4 °F 77% 30.07 in 10.0 mi NW 17.3 mph 24.2 mph N/A   Overcast
9:48 PM 62.6 °F - 53.6 °F 72% 30.08 in 10.0 mi NW 18.4 mph 25.3 mph N/A   Overcast
9:53 PM 63.0 °F - 52.0 °F 67% 30.08 in 10.0 mi NW 18.4 mph 25.3 mph N/A   Overcast
10:53 PM 63.0 °F - 48.9 °F 60% 30.07 in 10.0 mi NW 9.2 mph - N/A   Overcast
11:53 PM 60.1 °F - 48.0 °F 64% 30.08 in 10.0 mi NW 10.4 mph - N/A   Clear